| time (UTC) | temp F | wind direction | speed MPH | gust MPH | rain 1hr in | rain 24hr in | rain mn in | humidity % | barometer mb |
| 20260504044530 | 60 | 202 | 0.0 | 1.0 | 0.00 | 0.00 | 0.00 | 61 | 1011.1 |
| 20260504043032 | 61 | 202 | 0.0 | 0.0 | 0.00 | 0.00 | 0.00 | 60 | 1010.9 |
| 20260504041606 | 61 | 202 | 0.0 | 2.0 | 0.00 | 0.00 | 0.00 | 59 | 1010.7 |
| 20260504040037 | 63 | 202 | 0.0 | 2.0 | 0.00 | 0.00 | 0.00 | 56 | 1010.5 |
| 20260504034532 | 65 | 183 | 1.0 | 5.0 | 0.00 | 0.00 | 0.00 | 54 | 1010.3 |
| 20260504033031 | 66 | 103 | 0.0 | 4.0 | 0.00 | 0.00 | 0.00 | 51 | 1010.0 |
| 20260504031533 | 70 | 90 | 0.0 | 0.0 | 0.00 | 0.00 | 0.00 | 46 | 1009.9 |
| 20260504030030 | 74 | 83 | 0.0 | 1.0 | 0.00 | 0.00 | 0.00 | 39 | 1009.9 |
| 20260504024531 | 77 | 43 | 2.0 | 6.0 | 0.00 | 0.00 | 0.00 | 34 | 1009.8 |
| 20260504023030 | 78 | 53 | 2.0 | 6.0 | 0.00 | 0.00 | 0.00 | 32 | 1009.9 |
| 20260504021531 | 79 | 36 | 3.0 | 7.0 | 0.00 | 0.00 | 0.00 | 32 | 1010.0 |
| 20260504020031 | 80 | 23 | 4.0 | 7.0 | 0.00 | 0.00 | 0.00 | 30 | 1010.1 |
| 20260504014532 | 81 | 15 | 4.0 | 6.0 | 0.00 | 0.00 | 0.00 | 29 | 1010.1 |
| 20260504013028 | 81 | 18 | 3.0 | 6.0 | 0.00 | 0.00 | 0.00 | 28 | 1010.3 |
| 20260504011531 | 81 | 10 | 3.0 | 7.0 | 0.00 | 0.00 | 0.00 | 27 | 1010.4 |
| 20260504010106 | 82 | 31 | 3.0 | 8.0 | 0.00 | 0.00 | 0.00 | 27 | 1010.5 |
| 20260504004531 | 82 | 357 | 3.0 | 7.0 | 0.00 | 0.00 | 0.00 | 26 | 1010.7 |
| 20260504003032 | 82 | 34 | 1.0 | 6.0 | 0.00 | 0.00 | 0.00 | 26 | 1010.8 |
| 20260504001531 | 83 | 39 | 2.0 | 7.0 | 0.00 | 0.00 | 0.00 | 26 | 1010.9 |
| 20260504000030 | 82 | 345 | 4.0 | 12.0 | 0.00 | 0.00 | 0.00 | 27 | 1011.1 |
| 20260503234529 | 82 | 17 | 3.0 | 8.0 | 0.00 | 0.00 | 0.00 | 25 | 1011.2 |
| 20260503231531 | 82 | 5 | 5.0 | 14.0 | 0.00 | 0.00 | 0.00 | 27 | 1011.6 |
| 20260503230032 | 82 | 39 | 5.0 | 12.0 | 0.00 | 0.00 | 0.00 | 27 | 1011.9 |
| 20260503224529 | 81 | 23 | 6.0 | 13.0 | 0.00 | 0.00 | 0.00 | 26 | 1012.1 |
| 20260503223034 | 81 | 29 | 5.0 | 12.0 | 0.00 | 0.00 | 0.00 | 26 | 1012.4 |
| 20260503221529 | 81 | 359 | 6.0 | 12.0 | 0.00 | 0.00 | 0.00 | 27 | 1012.6 |
| 20260503220032 | 80 | 47 | 6.0 | 13.0 | 0.00 | 0.00 | 0.00 | 29 | 1012.8 |
| 20260503211530 | 80 | 24 | 8.0 | 16.0 | 0.00 | 0.00 | 0.00 | 30 | 1013.3 |
| 20260503210029 | 80 | 57 | 6.0 | 15.0 | 0.00 | 0.00 | 0.00 | 30 | 1013.6 |
| 20260503204606 | 79 | 45 | 8.0 | 16.0 | 0.00 | 0.00 | 0.00 | 30 | 1013.7 |
| 20260503203145 | 79 | 32 | 8.0 | 17.0 | 0.00 | 0.00 | 0.00 | 30 | 1013.9 |
| 20260503201530 | 79 | 31 | 7.0 | 17.0 | 0.00 | 0.00 | 0.00 | 31 | 1013.9 |
| 20260503200034 | 78 | 36 | 6.0 | 14.0 | 0.00 | 0.00 | 0.00 | 31 | 1014.1 |
| 20260503194530 | 78 | 27 | 8.0 | 20.0 | 0.00 | 0.00 | 0.00 | 32 | 1014.3 |
| 20260503193031 | 78 | 41 | 5.0 | 11.0 | 0.00 | 0.00 | 0.00 | 32 | 1014.4 |
| 20260503191530 | 78 | 24 | 8.0 | 18.0 | 0.00 | 0.00 | 0.00 | 34 | 1014.5 |
| 20260503184529 | 76 | 325 | 4.0 | 9.0 | 0.00 | 0.00 | 0.00 | 41 | 1014.7 |
| 20260503183029 | 76 | 343 | 3.0 | 11.0 | 0.00 | 0.00 | 0.00 | 41 | 1014.8 |
| 20260503181607 | 75 | 323 | 4.0 | 12.0 | 0.00 | 0.00 | 0.00 | 42 | 1014.9 |
| 20260503180144 | 74 | 315 | 5.0 | 9.0 | 0.00 | 0.00 | 0.00 | 45 | 1015.0 |
| 20260503174531 | 72 | 289 | 5.0 | 8.0 | 0.00 | 0.00 | 0.00 | 47 | 1015.1 |
| 20260503173031 | 72 | 296 | 4.0 | 6.0 | 0.00 | 0.00 | 0.00 | 47 | 1015.3 |
| 20260503171530 | 70 | 292 | 5.0 | 7.0 | 0.00 | 0.00 | 0.00 | 48 | 1015.3 |
| 20260503120105 | 46 | 135 | 0.0 | 0.0 | 0.00 | 0.00 | 0.00 | 88 | 1015.4 |
| 20260503110146 | 48 | 157 | 0.0 | 2.0 | 0.00 | 0.00 | 0.00 | 85 | 1015.6 |
| 20260503081529 | 50 | 180 | 0.0 | 1.0 | 0.00 | 0.00 | 0.00 | 87 | 1015.5 |
| 20260503071530 | 52 | 164 | 0.0 | 2.0 | 0.00 | 0.00 | 0.00 | 85 | 1015.5 |